| time (UTC) | temp F | wind direction | speed MPH | gust MPH | rain 1hr in | rain 24hr in | rain mn in | humidity % | barometer mb |
| 20260503200057 | 84 | 226 | 7.0 | 17.0 | 0.00 | 0.00 | 0.00 | 11 | 1009.9 |
| 20260503194558 | 84 | 251 | 10.0 | 19.0 | 0.00 | 0.00 | 0.00 | 12 | 1010.2 |
| 20260503193059 | 84 | 199 | 8.0 | 26.0 | 0.00 | 0.00 | 0.00 | 11 | 1010.4 |
| 20260503191559 | 83 | 176 | 8.0 | 22.0 | 0.00 | 0.00 | 0.00 | 13 | 1010.7 |
| 20260503190055 | 83 | 220 | 11.0 | 20.0 | 0.00 | 0.00 | 0.00 | 14 | 1010.9 |
| 20260503184556 | 82 | 199 | 9.0 | 20.0 | 0.00 | 0.00 | 0.00 | 14 | 1011.2 |
| 20260503183056 | 82 | 215 | 10.0 | 20.0 | 0.00 | 0.00 | 0.00 | 13 | 1011.8 |
| 20260503181604 | 81 | 199 | 8.0 | 18.0 | 0.00 | 0.00 | 0.00 | 15 | 1012.1 |
| 20260503180112 | 81 | 239 | 10.0 | 23.0 | 0.00 | 0.00 | 0.00 | 16 | 1012.4 |
| 20260503174556 | 80 | 191 | 6.0 | 15.0 | 0.00 | 0.00 | 0.00 | 17 | 1012.8 |
| 20260503173100 | 79 | 241 | 5.0 | 15.0 | 0.00 | 0.00 | 0.00 | 20 | 1013.2 |
| 20260503171600 | 79 | 234 | 4.0 | 12.0 | 0.00 | 0.00 | 0.00 | 23 | 1013.4 |
| 20260503150104 | 66 | 245 | 5.0 | 14.0 | 0.00 | 0.00 | 0.00 | 35 | 1015.3 |
| 20260503081557 | 52 | 209 | 5.0 | 14.0 | 0.00 | 0.00 | 0.00 | 47 | 1016.6 |
| 20260503071606 | 52 | 176 | 2.0 | 7.0 | 0.00 | 0.00 | 0.00 | 48 | 1017.5 |
| 20260503060111 | 56 | 160 | 4.0 | 11.0 | 0.00 | 0.00 | 0.00 | 40 | 1017.8 |
| 20260503054611 | 56 | 156 | 4.0 | 11.0 | 0.00 | 0.00 | 0.00 | 38 | 1017.7 |
| 20260503053059 | 57 | 179 | 4.0 | 11.0 | 0.00 | 0.00 | 0.00 | 38 | 1017.6 |
| 20260503051559 | 57 | 187 | 4.0 | 15.0 | 0.00 | 0.00 | 0.00 | 37 | 1017.7 |
| 20260503050104 | 56 | 178 | 5.0 | 12.0 | 0.00 | 0.00 | 0.00 | 38 | 1017.6 |
| 20260503044610 | 56 | 170 | 2.0 | 8.0 | 0.00 | 0.00 | 0.00 | 38 | 1017.6 |
| 20260503043119 | 57 | 178 | 2.0 | 6.0 | 0.00 | 0.00 | 0.00 | 38 | 1017.5 |
| 20260503041601 | 58 | 176 | 1.0 | 6.0 | 0.00 | 0.00 | 0.00 | 35 | 1017.6 |
| 20260503040111 | 59 | 162 | 1.0 | 6.0 | 0.00 | 0.00 | 0.00 | 33 | 1017.6 |
| 20260503034602 | 60 | 139 | 2.0 | 7.0 | 0.00 | 0.00 | 0.00 | 31 | 1017.5 |
| 20260503033109 | 61 | 205 | 3.0 | 10.0 | 0.00 | 0.00 | 0.00 | 30 | 1017.5 |
| 20260503031602 | 61 | 170 | 3.0 | 7.0 | 0.00 | 0.00 | 0.00 | 28 | 1017.6 |
| 20260503030058 | 62 | 154 | 1.0 | 4.0 | 0.00 | 0.00 | 0.00 | 27 | 1017.4 |
| 20260503024556 | 63 | 159 | 0.0 | 4.0 | 0.00 | 0.00 | 0.00 | 28 | 1017.2 |
| 20260503023103 | 65 | 168 | 0.0 | 5.0 | 0.00 | 0.00 | 0.00 | 26 | 1017.0 |
| 20260503021605 | 66 | 168 | 0.0 | 3.0 | 0.00 | 0.00 | 0.00 | 26 | 1017.0 |
| 20260503020106 | 67 | 0 | 0.0 | 4.0 | 0.00 | 0.00 | 0.00 | 24 | 1016.9 |
| 20260503014557 | 68 | 0 | 1.0 | 6.0 | 0.00 | 0.00 | 0.00 | 23 | 1016.7 |
| 20260503013107 | 70 | 161 | 2.0 | 5.0 | 0.00 | 0.00 | 0.00 | 22 | 1016.7 |
| 20260503011605 | 71 | 162 | 2.0 | 6.0 | 0.00 | 0.00 | 0.00 | 22 | 1016.8 |
| 20260503010100 | 72 | 195 | 2.0 | 8.0 | 0.00 | 0.00 | 0.00 | 21 | 1016.7 |
| 20260503004556 | 72 | 195 | 3.0 | 8.0 | 0.00 | 0.00 | 0.00 | 20 | 1016.7 |
| 20260503003106 | 73 | 189 | 3.0 | 10.0 | 0.00 | 0.00 | 0.00 | 20 | 1016.8 |
| 20260503001600 | 73 | 181 | 3.0 | 8.0 | 0.00 | 0.00 | 0.00 | 20 | 1017.0 |
| 20260503000108 | 73 | 209 | 5.0 | 10.0 | 0.00 | 0.00 | 0.00 | 20 | 1017.1 |
| 20260502234558 | 74 | 266 | 2.0 | 10.0 | 0.00 | 0.00 | 0.00 | 20 | 1017.1 |
| 20260502233100 | 74 | 262 | 3.0 | 10.0 | 0.00 | 0.00 | 0.00 | 19 | 1017.3 |
| 20260502231555 | 74 | 235 | 4.0 | 11.0 | 0.00 | 0.00 | 0.00 | 20 | 1017.5 |
| 20260502230111 | 74 | 205 | 5.0 | 13.0 | 0.00 | 0.00 | 0.00 | 20 | 1017.6 |
| 20260502224557 | 74 | 268 | 1.0 | 10.0 | 0.00 | 0.00 | 0.00 | 22 | 1017.6 |
| 20260502223100 | 74 | 284 | 2.0 | 9.0 | 0.00 | 0.00 | 0.00 | 21 | 1017.9 |
| 20260502221554 | 74 | 188 | 2.0 | 9.0 | 0.00 | 0.00 | 0.00 | 21 | 1018.0 |
| 20260502220058 | 74 | 338 | 2.0 | 9.0 | 0.00 | 0.00 | 0.00 | 21 | 1018.2 |
| 20260502214557 | 73 | 248 | 4.0 | 10.0 | 0.00 | 0.00 | 0.00 | 21 | 1018.5 |
| 20260502213058 | 73 | 0 | 3.0 | 12.0 | 0.00 | 0.00 | 0.00 | 22 | 1018.8 |
| 20260502211558 | 72 | 197 | 4.0 | 13.0 | 0.00 | 0.00 | 0.00 | 22 | 1019.1 |
| 20260502210056 | 72 | 226 | 5.0 | 15.0 | 0.00 | 0.00 | 0.00 | 21 | 1019.3 |
| 20260502204615 | 72 | 230 | 3.0 | 11.0 | 0.00 | 0.00 | 0.00 | 21 | 1019.5 |
| 20260502203059 | 73 | 195 | 4.0 | 10.0 | 0.00 | 0.00 | 0.00 | 23 | 1019.7 |
| 20260502201559 | 73 | 220 | 4.0 | 11.0 | 0.00 | 0.00 | 0.00 | 24 | 1019.9 |